#timestamp,LO_Frequency,Hit,StdDev 
1513494015.5,286047001.9,N
1513494035.3,286046998.4,N
1513494055.1,286046999.0,N
1513494075.9,286046996.6,N
1513494095.7,286046998.8,N
1513494115.5,286046998.3,N
1513494135.4,286046998.5,N
1513494155.2,286046999.0,N
1513494175.0,286046997.7,N
1513494175.9,286046997.7,N
1513494195.8,286046996.6,N
1513494215.6,286046995.4,N
1513494235.4,286046998.9,N
1513494255.3,286046998.6,N
1513494275.1,286046999.5,N
1513494276.0,286046999.5,N
1513494295.8,286046996.2,N
1513494315.7,286046999.2,N
1513494335.5,286046998.6,N
1513494355.3,286046995.6,N
1513494375.1,286046995.1,N
1513494395.9,286046998.8,N
1513494415.7,286046997.0,N
1513494435.5,286046999.2,N
1513494455.4,286047000.8,N
1513494475.2,286047000.5,N
1513494495.0,286047000.8,N
1513494495.9,286047000.8,N
1513494515.8,286047001.2,N
1513494535.6,286046998.9,N
1513494555.4,286046996.5,N
1513494575.3,286046997.1,N
1513494595.1,286046997.4,N
1513494596.0,286046997.4,N
1513494615.8,286046998.6,N
1513494635.7,286047000.3,N
1513494655.5,286047001.9,N
1513494675.3,286047004.2,N
1513494695.2,286047005.9,N
1513494715.9,286047011.2,Y
1513494735.7,286047019.9,P
1513494755.6,286047017.9,N
1513494775.4,286047020.3,N
1513494795.2,286047021.6,N
1513494815.0,286047018.2,N
1513494816.0,286047018.2,N
1513494835.8,286047016.3,N
1513494855.6,286047017.8,N
1513494875.4,286047018.7,N
1513494895.3,286047015.8,N
1513494915.1,286047021.1,Y
1513494935.8,286047006.7,P
1513494955.7,286047007.7,N
1513494975.5,286047008.8,N
1513494995.3,286047009.0,N
1513495015.2,286047004.7,N
1513495035.9,286047010.6,N
1513495055.7,286047008.2,N
1513495075.6,286047004.8,N
1513495095.4,286047005.3,N
1513495115.2,286047007.4,N
1513495135.1,286047006.7,N
1513495136.0,286047006.7,N
1513495155.8,286047013.4,Y
1513495175.6,286047004.6,P
1513495195.5,286047009.2,P
1513495215.3,286047008.8,P
1513495235.1,286047007.4,Y
1513495255.9,286047002.0,P
1513495275.7,286047001.5,N
1513495295.5,286047000.7,N
1513495315.4,286046995.4,N
1513495335.2,286046996.0,N
1513495355.0,286046994.7,N
1513495355.9,286046994.7,N
1513495375.8,286046990.8,N
1513495395.6,286046993.7,N
1513495415.4,286046996.0,N
1513495435.3,286046993.9,N
1513495455.1,286046994.4,N
1513495456.0,286046994.4,N
1513495475.8,286046994.3,N
1513495495.6,286046994.4,N
1513495515.5,286046992.1,N
1513495535.3,286046992.5,N
1513495555.1,286047001.2,N
1513495575.9,286046997.0,N
1513495595.7,286046996.6,N
1513495615.5,286046996.6,N
1513495635.4,286046998.1,N
1513495655.2,286046997.0,N
1513495675.0,286046997.3,N
1513495675.9,286046997.3,N
1513495695.8,286046998.3,N
1513495715.6,286046999.9,N
1513495735.4,286046999.0,N
1513495755.2,286046996.7,N
1513495775.1,286046996.7,N
1513495776.0,286046996.7,N
1513495795.8,286046997.4,N
1513495815.6,286046996.2,N
1513495835.5,286046997.7,N
1513495855.3,286046999.1,N
1513495875.1,286046998.9,N
1513495895.9,286046998.9,N
1513495915.7,286047000.3,N
1513495935.5,286047000.3,N
1513495955.4,286046999.7,N
1513495975.2,286046998.9,N
1513495995.0,286046995.3,N
1513495995.9,286046995.3,N
1513496015.8,286046995.9,N
1513496035.6,286046997.0,N
1513496055.4,286046998.9,N
1513496075.3,286047002.6,N
1513496095.1,286047001.8,N
1513496096.0,286047001.8,N
1513496115.8,286047002.6,N
1513496135.7,286046999.4,N
1513496155.5,286046998.3,N
1513496175.3,286046998.2,N
1513496195.1,286047001.5,N
1513496215.9,286047000.5,N
1513496235.7,286047002.3,N
1513496255.5,286047002.8,N
1513496275.4,286047001.3,N
1513496295.2,286047002.7,N
1513496315.0,286047003.8,N
1513496315.9,286047003.8,N
1513496335.8,286047003.5,N
1513496355.6,286047001.3,N
1513496375.4,286047004.3,N
1513496395.3,286047003.8,N
1513496415.1,286047001.4,N
1513496416.0,286047001.4,N
1513496435.8,286047005.5,N
1513496455.7,286047001.9,N
1513496475.5,286047000.2,N
1513496495.3,286047001.6,N
1513496515.2,286047008.8,Y
1513496535.9,286047006.3,P
1513496555.7,286047010.3,P
1513496575.6,286047012.2,P
1513496595.4,286047007.8,N
1513496615.2,286047010.8,N
1513496635.1,286047012.0,Y
1513496636.0,286047012.0,P
1513496655.8,286047001.4,N
1513496675.6,286046998.1,N
1513496695.4,286046998.7,N
1513496715.3,286047000.1,N
1513496735.1,286046997.5,N
1513496755.8,286046996.8,N
1513496775.7,286046991.8,N
1513496795.5,286046991.8,N
1513496815.3,286046998.7,N
1513496835.2,286046999.5,N
1513496855.9,286046991.9,N
1513496875.7,286046996.0,N
1513496895.6,286046999.6,N
1513496915.4,286047004.1,N
1513496935.2,286047001.5,N
1513496955.1,286047001.4,N
1513496956.0,286047001.4,N
1513496975.8,286047002.4,N
1513496995.6,286047002.5,N
1513497015.5,286047001.2,N
1513497035.3,286047004.8,N
1513497055.1,286047008.4,N
1513497075.8,286047009.6,N
1513497095.7,286047007.7,N
1513497115.5,286047007.7,N
1513497135.3,286047012.1,N
1513497155.2,286047012.4,N
1513497175.9,286047016.4,N
1513497195.7,286047014.8,N
1513497215.6,286047014.9,N
1513497235.4,286047016.5,N
1513497255.2,286047012.8,N
1513497275.1,286047009.5,N
1513497276.0,286047009.5,N
1513497295.8,286047009.8,N
1513497315.6,286047012.3,N
1513497335.5,286047006.3,N
1513497355.3,286047009.1,N
1513497375.1,286047013.9,N
1513497395.9,286047015.3,N
1513497415.7,286047015.5,N
1513497435.5,286047012.5,N
1513497455.4,286047016.8,Y
1513497475.2,286047003.5,P
1513497495.0,286047002.8,N
1513497495.9,286047002.8,N
1513497515.7,286047002.6,N
1513497535.6,286047000.1,N
1513497555.4,286046999.5,N
1513497575.2,286046996.9,N
1513497595.1,286046999.0,N
1513497596.0,286046999.0,N
